Temp
-5 -5 -5 -5 -5 -5 -5 -6 -6 -6 -7 -7 -7 -7 -7 -6 -6 -5 -5 -5 -5 -5 -5 -5 -4 -4 -4 -5 -5 -5 -4 -5 -5 -5 -4 -4 -4 -4 -4 -4 -3 -3 -3 -4 -4 -4 -4 -5 -5
-5 -5 -5 -5 -5 -5 -6 -6 -6 -7 -7 -7 -7 -7 -6 -6 -5 -5 -5 -5 -6 -6 -6 -5 -5 -5 -5 -5 -5 -5 -5 -5 -5 -5 -5 -4 -4 -4 -4 -4 -4 -3 -4 -4 -4 -4 -4 -5 -5
-5 -5 -5 -5 -5 -6 -7 -6 -9 -8 -8 -7 -6 -6 -7 -6 -5 -5 -5 -5 -5 -6 -5 -5 -5 -5 -5 -5 -5 -5 -5 -6 -5 -5 -5 -4 -5 -4 -5 -4 -4 -3 -4 -4 -4 -4 -4 -5 -5
-5 -5 -5 -5 -5 -6 -7 -7 -8 -9 -8 -7 -7 -5 -6 -7 -5 -5 -4 -4 -4 -5 -5 -5 -5 -5 -5 -5 -5 -5 -5 -6 -6 -5 -5 -4 -5 -5 -5 -4 -4 -4 -4 -4 -4 -4 -4 -5 -5
-6 -5 -5 -5 -6 -6 -7 -7 -7 -7 -8 -7 -6 -7 -6 -5 -5 -4 -4 -5 -4 -5 -5 -5 -5 -5 -5 -5 -5 -5 -5 -6 -7 -6 -5 -4 -4 -5 -5 -5 -4 -4 -4 -4 -4 -4 -4 -5 -5
-6 -6 -6 -6 -6 -6 -7 -8 -7 -7 -7 -7 -5 -6 -7 -5 -4 -5 -5 -5 -5 -4 -5 -6 -5 -5 -5 -5 -5 -5 -5 -6 -7 -6 -5 -4 -4 -5 -5 -5 -5 -4 -4 -4 -4 -4 -4 -5 -5
-6 -6 -6 -6 -7 -7 -7 -7 -7 -6 -6 -7 -7 -7 -5 -5 -5 -4 -4 -5 -5 -4 -4 -6 -5 -5 -5 -5 -5 -5 -4 -6 -5 -5 -5 -5 -4 -5 -5 -5 -5 -5 -4 -5 -4 -5 -5 -5 -5
-6 -6 -6 -7 -7 -8 -7 -6 -6 -5 -5 -5 -7 -7 -6 -6 -5 -5 -5 -4 -5 -5 -4 -5 -5 -5 -5 -5 -5 -5 -4 -5 -6 -5 -4 -5 -5 -5 -5 -5 -5 -5 -5 -5 -5 -5 -5 -5 -5
-6 -6 -7 -7 -6 -7 -7 -6 -5 -4 -4 -5 -7 -7 -7 -7 -6 -5 -6 -5 -4 -5 -5 -6 -5 -5 -5 -5 -5 -5 -6 -6 -5 -5 -5 -5 -5 -5 -5 -5 -5 -5 -5 -5 -5 -6 -5 -5 -5
-6 -6 -7 -7 -7 -7 -7 -7 -7 -6 -7 -7 -8 -8 -7 -7 -6 -6 -5 -6 -5 -4 -5 -5 -6 -5 -5 -6 -6 -6 -7 -6 -6 -5 -5 -5 -6 -6 -6 -5 -5 -5 -5 -5 -5 -6 -6 -5 -5
-7 -7 -8 -8 -8 -7 -9 -9 -8 -8 -8 -8 -8 -8 -7 -7 -7 -7 -6 -6 -7 -6 -5 -5 -6 -6 -6 -6 -6 -7 -7 -7 -6 -6 -6 -5 -6 -6 -6 -6 -6 -5 -5 -5 -5 -6 -6 -6 -6
-8 -8 -8 -8 -9 -8 -9 -10 -10 -10 -9 -9 -8 -8 -8 -8 -7 -8 -7 -6 -7 -6 -5 -5 -5 -7 -6 -6 -6 -6 -7 -7 -7 -7 -6 -6 -6 -6 -6 -5 -6 -6 -6 -5 -5 -6 -6 -6 -6
-8 -9 -9 -9 -10 -10 -10 -10 -10 -10 -11 -10 -10 -9 -9 -9 -8 -8 -8 -7 -7 -7 -6 -5 -5 -7 -6 -7 -7 -6 -7 -7 -7 -7 -6 -6 -6 -6 -6 -6 -6 -5 -5 -5 -5 -6 -6 -7 -6
-9 -10 -10 -11 -11 -11 -11 -11 -11 -11 -11 -11 -10 -10 -10 -10 -10 -9 -8 -8 -8 -7 -7 -6 -6 -6 -6 -6 -7 -7 -6 -7 -7 -7 -6 -6 -6 -6 -5 -6 -6 -6 -5 -5 -6 -6 -7 -6 -6
-9 -10 -11 -12 -12 -11 -11 -11 -11 -11 -11 -11 -10 -10 -10 -10 -10 -10 -9 -9 -8 -8 -7 -7 -7 -6 -7 -7 -7 -7 -7 -7 -7 -7 -7 -6 -6 -6 -6 -6 -6 -6 -5 -5 -6 -6 -6 -7 -6
-10 -11 -11 -11 -11 -12 -12 -11 -11 -11 -11 -11 -11 -11 -10 -10 -10 -10 -10 -9 -9 -9 -8 -8 -7 -7 -7 -7 -7 -7 -7 -7 -7 -7 -7 -6 -7 -6 -6 -6 -6 -6 -6 -6 -6 -6 -6 -7 -7
-10 -10 -10 -11 -13 -13 -13 -12 -12 -12 -12 -12 -11 -11 -11 -11 -11 -11 -10 -10 -9 -9 -9 -9 -7 -8 -7 -6 -6 -7 -7 -7 -7 -7 -7 -7 -7 -6 -6 -6 -6 -6 -6 -6 -6 -6 -7 -7 -7
-10 -11 -11 -11 -12 -13 -13 -12 -12 -12 -12 -12 -12 -12 -12 -12 -12 -12 -12 -11 -10 -10 -9 -9 -9 -8 -8 -8 -7 -6 -7 -7 -7 -8 -8 -7 -7 -7 -6 -7 -7 -7 -7 -7 -7 -6 -7 -7 -7
-11 -11 -11 -11 -12 -12 -12 -12 -12 -13 -13 -13 -13 -13 -13 -13 -13 -12 -12 -12 -12 -11 -11 -10 -9 -9 -8 -8 -8 -7 -7 -7 -8 -7 -8 -8 -8 -7 -7 -7 -7 -7 -7 -7 -7 -7 -7 -7 -7
-11 -11 -11 -11 -12 -12 -12 -12 -12 -13 -13 -13 -14 -14 -14 -13 -13 -13 -12 -12 -12 -12 -12 -11 -11 -10 -9 -8 -8 -8 -7 -7 -8 -8 -8 -8 -8 -8 -7 -7 -7 -7 -7 -7 -7 -7 -7 -7 -8
-12 -12 -11 -12 -12 -12 -12 -12 -12 -14 -14 -14 -14 -14 -14 -13 -13 -13 -13 -13 -12 -12 -12 -12 -12 -11 -11 -9 -8 -8 -7 -7 -7 -8 -7 -8 -8 -8 -8 -7 -7 -7 -7 -7 -7 -7 -7 -8 -8
-12 -12 -12 -12 -12 -12 -13 -12 -13 -14 -13 -15 -14 -14 -14 -13 -13 -13 -13 -13 -12 -12 -12 -12 -13 -11 -11 -12 -9 -8 -8 -7 -7 -7 -8 -7 -7 -8 -8 -8 -8 -7 -7 -7 -8 -7 -7 -8 -8
-12 -12 -12 -12 -12 -12 -13 -13 -14 -14 -14 -14 -14 -15 -15 -14 -14 -14 -13 -13 -12 -12 -13 -13 -12 -11 -11 -12 -10 -9 -8 -8 -7 -7 -7 -8 -9 -7 -8 -8 -8 -8 -8 -8 -7 -7 -7 -8 -8
-12 -12 -12 -12 -13 -13 -13 -13 -13 -15 -14 -15 -15 -15 -15 -15 -15 -15 -14 -13 -13 -13 -13 -14 -13 -12 -11 -11 -11 -10 -8 -8 -7 -7 -8 -7 -7 -7 -9 -8 -8 -8 -8 -8 -8 -8 -7 -8 -8
-13 -13 -12 -13 -13 -13 -14 -13 -14 -14 -15 -15 -15 -15 -16 -15 -15 -15 -15 -14 -13 -13 -15 -15 -16 -15 -13 -11 -11 -11 -9 -8 -8 -7 -7 -7 -7 -7 -8 -9 -8 -8 -9 -9 -8 -8 -8 -7 -8
-13 -13 -14 -13 -13 -13 -14 -14 -14 -14 -14 -15 -15 -15 -15 -15 -15 -15 -14 -14 -14 -14 -15 -15 -15 -14 -16 -13 -12 -11 -10 -9 -9 -7 -8 -7 -8 -7 -7 -8 -9 -9 -9 -9 -8 -8 -8 -9 -8
-14 -14 -14 -14 -14 -13 -13 -14 -14 -16 -14 -14 -15 -16 -16 -16 -15 -15 -14 -14 -14 -14 -13 -15 -15 -16 -16 -15 -14 -12 -12 -10 -9 -8 -8 -8 -8 -7 -7 -9 -9 -9 -8 -8 -8 -8 -9 -9 -8
-14 -15 -15 -15 -14 -13 -13 -13 -15 -15 -14 -15 -15 -14 -15 -15 -16 -16 -15 -14 -14 -15 -15 -16 -16 -15 -17 -15 -15 -14 -12 -11 -10 -8 -9 -9 -8 -8 -7 -8 -9 -9 -9 -9 -8 -8 -8 -8 -8
-15 -15 -15 -15 -15 -14 -14 -13 -14 -15 -15 -16 -15 -14 -14 -14 -15 -16 -15 -15 -15 -15 -16 -16 -16 -17 -16 -15 -14 -15 -14 -12 -11 -10 -9 -9 -8 -8 -8 -7 -9 -9 -9 -8 -9 -9 -8 -9 -8
-15 -15 -16 -16 -15 -15 -14 -13 -14 -15 -15 -15 -15 -15 -14 -14 -15 -15 -16 -16 -15 -15 -15 -16 -17 -16 -17 -17 -15 -15 -15 -14 -12 -11 -10 -9 -8 -7 -8 -8 -8 -9 -9 -8 -8 -9 -9 -10 -8
Height
5878 5879 5881 5883 5889 5890 5894 5896 5899 5898 5892 5894 5900 5897 5895 5897 5898 5901 5904 5908 5908 5909 5910 5910 5912 5913 5914 5915 5917 5918 5919 5919 5922 5924 5923 5921 5921 5921 5919 5919 5919 5917 5916 5917 5917 5917 5915 5912 5909
5876 5877 5879 5881 5885 5888 5890 5889 5886 5889 5888 5890 5893 5895 5888 5891 5895 5899 5901 5905 5907 5906 5908 5909 5910 5912 5913 5913 5914 5916 5915 5916 5918 5921 5922 5921 5920 5920 5919 5918 5918 5917 5916 5916 5917 5917 5915 5912 5910
5873 5874 5876 5878 5880 5885 5887 5886 5882 5884 5884 5885 5886 5892 5886 5886 5887 5897 5896 5901 5903 5904 5904 5907 5909 5909 5910 5911 5912 5913 5914 5914 5915 5918 5920 5920 5919 5919 5919 5917 5917 5916 5915 5915 5915 5916 5915 5912 5910
5870 5872 5873 5875 5877 5880 5880 5876 5877 5880 5881 5881 5881 5884 5884 5883 5884 5887 5889 5899 5897 5902 5901 5904 5906 5907 5908 5908 5908 5908 5909 5910 5912 5914 5917 5918 5917 5917 5917 5916 5915 5915 5914 5914 5914 5914 5913 5911 5910
5866 5867 5868 5871 5874 5877 5879 5876 5876 5875 5876 5877 5879 5881 5879 5881 5881 5881 5887 5889 5893 5900 5899 5900 5902 5903 5905 5905 5905 5904 5904 5905 5908 5910 5914 5915 5916 5915 5915 5915 5915 5914 5913 5913 5912 5912 5912 5910 5909
5863 5865 5866 5868 5868 5868 5869 5871 5869 5873 5873 5871 5872 5877 5871 5868 5877 5881 5881 5886 5887 5892 5895 5895 5897 5898 5899 5901 5901 5901 5902 5900 5903 5908 5911 5912 5913 5914 5913 5913 5913 5913 5912 5912 5910 5910 5911 5909 5908
5859 5860 5862 5863 5864 5867 5863 5863 5861 5862 5867 5868 5866 5868 5866 5867 5871 5876 5877 5880 5881 5887 5888 5891 5891 5893 5894 5895 5896 5897 5899 5901 5903 5906 5908 5909 5910 5911 5911 5911 5911 5911 5911 5910 5909 5908 5908 5907 5907
5856 5857 5858 5858 5857 5858 5856 5854 5853 5855 5858 5860 5865 5863 5861 5860 5864 5869 5871 5876 5876 5880 5882 5881 5885 5886 5887 5889 5891 5891 5893 5898 5901 5903 5905 5907 5909 5908 5909 5909 5910 5909 5910 5908 5908 5907 5907 5906 5905
5851 5851 5851 5849 5849 5850 5848 5847 5847 5847 5852 5854 5858 5861 5860 5854 5855 5860 5863 5862 5865 5872 5875 5874 5877 5879 5881 5883 5885 5886 5888 5893 5898 5900 5901 5903 5906 5907 5906 5907 5907 5907 5907 5907 5908 5906 5905 5905 5904
5844 5844 5842 5840 5840 5842 5842 5841 5841 5844 5846 5847 5850 5849 5852 5846 5846 5851 5858 5855 5854 5860 5868 5868 5869 5872 5874 5877 5881 5883 5886 5890 5894 5895 5897 5899 5901 5903 5903 5903 5903 5904 5904 5903 5904 5903 5902 5903 5901
5837 5837 5835 5832 5828 5833 5835 5832 5830 5831 5834 5834 5837 5841 5841 5843 5840 5844 5850 5850 5850 5845 5855 5861 5862 5864 5869 5872 5875 5880 5883 5885 5889 5891 5892 5895 5897 5900 5899 5900 5900 5899 5900 5900 5902 5900 5900 5900 5899
5830 5827 5826 5826 5821 5822 5826 5825 5822 5822 5822 5823 5825 5827 5831 5831 5832 5836 5839 5842 5839 5840 5841 5856 5858 5859 5863 5870 5871 5874 5878 5881 5884 5886 5887 5891 5893 5895 5894 5897 5896 5895 5896 5897 5899 5897 5898 5895 5895
5822 5820 5819 5817 5815 5814 5814 5815 5814 5814 5814 5812 5813 5815 5816 5820 5825 5828 5831 5831 5834 5832 5832 5842 5851 5856 5858 5865 5865 5867 5871 5875 5879 5881 5883 5887 5889 5889 5890 5892 5893 5892 5893 5893 5895 5893 5894 5894 5891
5816 5814 5812 5809 5808 5806 5805 5806 5805 5806 5801 5801 5802 5805 5807 5808 5813 5817 5819 5823 5825 5825 5825 5833 5842 5849 5850 5856 5855 5859 5861 5866 5871 5876 5877 5882 5885 5884 5889 5888 5889 5890 5890 5891 5891 5890 5891 5891 5890
5811 5809 5805 5802 5801 5799 5796 5799 5797 5797 5792 5792 5794 5796 5797 5798 5799 5805 5807 5811 5817 5815 5814 5824 5830 5835 5840 5847 5849 5853 5858 5860 5862 5868 5870 5876 5879 5880 5884 5885 5886 5885 5887 5887 5887 5887 5888 5886 5887
5804 5803 5801 5796 5792 5791 5787 5790 5788 5787 5783 5784 5786 5787 5787 5788 5790 5792 5797 5800 5805 5807 5807 5810 5820 5823 5830 5833 5841 5847 5850 5851 5856 5860 5862 5870 5872 5876 5878 5881 5884 5883 5883 5885 5884 5883 5884 5883 5884
5800 5796 5793 5791 5787 5783 5781 5779 5780 5777 5775 5774 5776 5779 5778 5779 5783 5783 5786 5790 5793 5797 5800 5802 5806 5814 5817 5821 5828 5837 5840 5842 5848 5852 5856 5861 5865 5868 5871 5875 5878 5879 5879 5880 5881 5880 5879 5880 5882
5796 5792 5789 5786 5785 5779 5776 5773 5771 5770 5767 5766 5765 5768 5771 5773 5775 5777 5779 5782 5785 5788 5790 5795 5796 5801 5807 5810 5812 5822 5827 5830 5837 5843 5849 5851 5857 5861 5864 5867 5871 5873 5875 5876 5876 5878 5877 5877 5878
5790 5787 5785 5782 5778 5772 5769 5765 5763 5761 5759 5758 5758 5760 5762 5767 5768 5769 5773 5775 5777 5778 5781 5784 5787 5791 5793 5799 5802 5805 5815 5821 5826 5834 5840 5842 5848 5852 5855 5859 5863 5866 5870 5871 5870 5872 5874 5874 5874
5786 5783 5780 5776 5772 5768 5761 5757 5755 5753 5753 5751 5752 5753 5755 5757 5761 5763 5765 5768 5770 5771 5772 5773 5776 5778 5781 5784 5791 5794 5803 5809 5816 5822 5828 5832 5837 5843 5848 5852 5856 5858 5862 5865 5866 5867 5868 5870 5869
5782 5778 5774 5771 5766 5762 5754 5751 5746 5749 5747 5744 5743 5745 5746 5749 5753 5756 5757 5759 5760 5761 5762 5764 5765 5766 5768 5772 5775 5781 5788 5795 5800 5807 5816 5823 5826 5832 5839 5846 5848 5849 5857 5859 5860 5863 5864 5865 5863
5778 5773 5770 5766 5762 5759 5750 5747 5741 5741 5738 5736 5737 5738 5740 5742 5742 5745 5748 5748 5748 5749 5750 5751 5752 5753 5755 5756 5762 5768 5775 5783 5791 5798 5800 5809 5812 5819 5826 5837 5840 5843 5848 5852 5854 5857 5860 5859 5858
5771 5767 5765 5762 5757 5752 5750 5742 5741 5738 5736 5730 5735 5735 5733 5733 5734 5732 5734 5736 5736 5734 5732 5735 5735 5738 5741 5744 5748 5754 5761 5770 5779 5784 5788 5794 5799 5805 5816 5824 5829 5834 5840 5844 5848 5852 5854 5854 5853
5762 5760 5759 5756 5753 5748 5742 5738 5738 5732 5729 5727 5731 5726 5726 5727 5728 5724 5722 5724 5724 5722 5719 5714 5711 5711 5722 5729 5734 5740 5749 5756 5767 5774 5778 5784 5790 5794 5806 5811 5820 5823 5831 5837 5840 5845 5848 5849 5850
5756 5752 5751 5750 5748 5744 5739 5734 5731 5728 5726 5723 5724 5721 5721 5720 5715 5716 5715 5711 5711 5709 5705 5700 5695 5695 5699 5708 5718 5727 5734 5742 5753 5760 5768 5763 5767 5784 5789 5803 5810 5813 5823 5830 5833 5837 5841 5843 5846
5749 5746 5744 5739 5738 5739 5736 5732 5727 5723 5719 5717 5715 5714 5711 5713 5708 5708 5706 5702 5700 5698 5693 5694 5691 5687 5687 5695 5702 5710 5716 5727 5738 5748 5756 5761 5764 5769 5773 5789 5798 5804 5815 5821 5828 5830 5835 5836 5839
5742 5739 5736 5731 5731 5728 5728 5725 5721 5715 5711 5711 5709 5706 5702 5699 5698 5696 5695 5692 5690 5684 5683 5685 5685 5680 5680 5681 5691 5697 5704 5711 5723 5733 5743 5754 5752 5762 5769 5777 5786 5797 5806 5814 5820 5822 5826 5828 5832
5732 5733 5729 5726 5720 5717 5720 5718 5716 5711 5705 5703 5699 5697 5696 5692 5688 5686 5683 5682 5681 5680 5678 5674 5671 5667 5670 5674 5679 5685 5695 5701 5711 5724 5734 5746 5749 5753 5759 5765 5777 5790 5799 5806 5812 5814 5817 5820 5824
5725 5723 5719 5717 5713 5709 5707 5709 5710 5705 5700 5697 5692 5688 5684 5680 5679 5676 5672 5672 5671 5670 5667 5664 5663 5661 5659 5663 5670 5674 5681 5689 5700 5713 5723 5732 5739 5743 5755 5758 5765 5782 5789 5797 5803 5806 5811 5814 5818
5712 5713 5711 5707 5705 5699 5695 5690 5700 5697 5692 5687 5682 5677 5675 5673 5669 5664 5662 5659 5659 5656 5656 5655 5650 5650 5649 5648 5658 5666 5675 5679 5689 5704 5716 5727 5736 5737 5749 5750 5759 5770 5781 5790 5794 5798 5803 5807 5810
Wind_Speed
17 17 17 17 18 16 13 14 11 14 16 21 22 31 37 32 23 24 18 9 10 11 11 12 12 16 17 18 17 21 26 29 20 14 13 11 11 10 8 9 9 7 6 7 10 11 13 14 16
17 17 18 17 16 12 11 18 25 20 22 27 32 32 40 35 34 25 23 19 9 11 13 13 12 13 14 15 15 17 19 24 24 19 16 14 13 12 11 10 11 9 8 7 10 12 14 15 17
16 17 17 16 16 13 12 20 8 17 27 30 37 35 43 44 38 30 27 22 18 17 19 16 16 16 17 18 21 21 18 24 29 22 18 18 15 14 12 12 12 12 9 8 10 13 15 17 19
16 18 19 18 16 14 20 25 27 20 31 37 38 33 35 38 40 38 31 24 27 19 24 21 19 19 20 21 23 26 23 19 33 31 25 21 18 15 14 14 14 14 12 10 10 13 16 18 18
15 18 20 19 17 15 17 27 32 33 33 38 37 34 33 35 38 40 35 32 30 23 25 27 25 23 23 22 25 27 29 25 29 31 24 23 20 18 16 16 15 15 13 11 11 13 17 18 19
16 17 17 18 19 21 22 24 35 35 38 39 36 32 40 41 37 34 35 31 35 32 29 29 28 27 25 23 25 24 23 23 29 26 25 23 21 19 19 17 17 16 15 13 12 13 17 19 19
19 21 20 20 20 18 25 31 35 37 36 42 44 41 41 41 37 35 34 33 33 31 31 31 32 31 29 28 27 27 24 23 22 22 24 24 23 21 20 18 19 17 17 13 15 14 16 18 20
23 24 24 25 24 18 29 34 38 40 37 38 39 40 42 43 40 37 36 32 34 33 31 33 33 33 31 29 28 28 28 29 29 24 24 24 25 23 21 20 19 19 18 16 15 15 16 19 21
25 27 27 32 33 33 36 40 42 40 37 38 32 33 38 45 45 39 35 39 39 35 34 36 32 33 33 31 27 20 21 26 27 26 26 25 27 26 24 22 22 20 19 17 17 17 18 19 20
24 25 29 34 38 38 40 42 44 43 41 39 35 38 38 45 49 45 40 43 42 39 36 38 38 35 33 32 26 20 21 26 27 26 26 28 28 26 25 23 22 22 20 18 16 18 19 19 20
27 27 30 35 40 37 37 42 46 48 46 48 45 41 44 44 48 45 42 44 43 46 41 38 38 39 35 33 31 25 27 28 30 29 27 28 26 25 27 25 23 23 23 20 16 18 20 20 21
25 26 29 31 40 40 39 42 46 50 50 51 50 49 46 48 49 42 45 45 45 48 48 40 39 40 39 34 35 32 30 31 29 31 32 28 27 27 29 28 25 23 24 22 19 18 20 21 22
24 26 27 28 31 34 36 37 40 45 47 51 53 51 51 47 47 45 44 48 46 51 53 47 41 40 41 27 43 37 34 31 32 31 32 29 28 32 30 30 27 24 24 23 20 21 20 20 24
24 24 24 26 28 31 32 32 33 33 39 42 42 44 44 46 43 44 47 45 44 50 53 51 47 40 39 21 44 42 40 35 34 33 34 32 31 36 32 30 27 26 25 23 22 22 22 21 19
24 21 23 27 29 29 33 30 31 31 37 38 38 36 37 38 41 40 45 45 42 48 54 50 49 49 46 45 38 44 47 40 38 35 37 36 35 37 36 32 27 27 26 24 24 23 22 24 20
20 20 20 22 25 28 29 22 26 31 35 36 33 31 33 36 37 38 41 46 45 47 52 52 51 54 48 51 49 46 54 43 42 39 39 37 38 38 37 34 30 29 27 24 24 24 22 24 20
20 22 24 24 28 33 35 33 30 34 35 37 35 32 31 30 29 30 35 40 46 49 50 50 53 52 52 54 53 50 50 45 43 42 40 40 40 38 37 35 32 29 27 23 24 24 21 22 18
17 19 21 25 23 29 32 33 30 30 32 32 33 32 31 28 26 28 28 32 38 43 47 51 52 53 51 54 57 54 52 51 48 46 42 42 38 39 38 36 32 30 27 28 27 25 21 21 21
20 21 22 21 23 26 26 27 27 26 24 23 23 27 28 27 27 28 27 25 26 32 39 42 51 55 56 54 58 59 55 53 52 51 47 44 42 41 39 35 31 30 29 30 25 27 22 24 21
20 22 23 24 25 28 28 29 28 27 22 19 22 26 29 30 27 30 31 30 31 33 34 35 43 49 59 60 59 63 61 60 57 54 52 47 47 44 41 36 32 34 33 30 29 26 27 23 19
21 24 24 26 27 28 31 27 21 13 14 20 16 20 30 32 29 32 35 37 37 36 39 38 41 46 49 62 63 65 65 65 64 59 53 51 47 44 43 36 36 35 32 32 28 27 29 24 30
22 24 24 24 27 26 28 19 7 13 20 21 24 27 31 26 26 26 30 34 38 40 41 41 44 51 49 51 66 67 67 68 67 62 55 52 48 52 45 39 36 34 32 32 29 32 32 26 22
24 25 25 25 25 26 17 22 5 13 20 19 20 23 28 26 30 34 32 35 36 43 47 43 43 52 56 53 62 70 69 70 70 67 70 55 61 53 48 40 37 34 31 29 31 32 29 24 22
28 28 27 24 22 25 29 28 15 23 27 30 21 24 30 35 35 36 39 40 41 48 52 54 49 57 59 60 59 68 72 72 71 70 68 69 51 47 49 41 39 39 33 28 34 35 29 28 25
30 31 29 28 25 20 20 26 25 23 23 28 27 32 39 37 33 38 35 39 43 46 44 46 35 37 63 67 62 65 73 73 73 69 68 57 53 56 61 52 44 41 34 31 36 36 31 31 24
31 32 30 32 28 21 16 18 16 21 25 32 35 36 39 44 39 36 32 32 38 41 33 35 35 36 41 64 65 66 71 74 74 72 70 68 61 41 57 49 43 41 35 32 42 41 35 35 26
29 32 34 35 32 30 20 19 25 27 28 27 31 34 39 36 41 37 33 34 34 37 32 35 41 36 38 58 60 64 65 70 74 76 72 59 44 44 53 46 40 37 34 38 32 38 37 41 28
33 31 32 31 36 35 26 23 18 27 31 30 33 30 31 43 44 42 39 33 33 28 35 39 52 39 34 41 51 57 62 65 70 75 73 73 52 34 44 33 32 34 35 35 40 41 46 36 27
31 31 33 35 37 37 36 29 20 26 30 33 35 34 35 34 32 38 42 40 39 35 38 43 32 28 34 37 48 47 52 58 62 72 68 76 50 70 58 38 40 41 36 36 27 32 36 24 26
34 31 30 34 38 40 41 42 28 31 37 39 38 40 37 33 32 34 41 46 41 40 41 41 41 38 41 43 38 45 46 52 56 65 57 74 54 51 43 25 28 33 36 33 21 38 35 29 28
Wind_Direction
237 234 232 229 233 227 221 219 202 217 232 221 233 254 258 253 266 277 275 263 266 248 253 253 246 250 257 260 255 265 248 262 260 281 253 239 244 248 248 259 267 270 280 297 308 323 328 330 339
240 243 240 238 237 221 200 206 185 195 241 241 225 239 253 250 255 258 265 264 267 270 257 246 243 244 246 243 251 266 277 262 257 256 271 240 245 248 252 257 263 267 275 288 302 312 318 324 327
242 245 243 239 239 223 196 212 171 250 247 248 247 234 249 257 263 257 259 265 257 249 259 252 254 256 249 254 265 265 262 265 250 247 268 246 241 245 251 260 266 274 279 287 301 310 314 317 324
244 245 246 244 232 227 204 204 182 239 243 248 245 252 245 254 256 260 256 247 261 252 261 261 257 259 263 269 273 279 277 268 249 247 253 245 239 244 250 256 265 276 284 291 304 310 310 312 325
245 243 246 245 242 228 213 222 213 213 232 243 251 259 263 253 258 259 259 264 254 252 259 264 261 255 256 262 271 279 281 266 237 239 246 243 239 240 244 254 266 276 282 291 298 304 307 312 324
257 250 249 247 242 232 213 208 238 233 232 247 258 246 253 256 252 256 263 258 258 253 249 256 260 261 262 262 265 272 271 251 221 234 241 238 239 241 245 251 259 271 277 283 290 300 305 311 318
263 261 260 251 250 256 222 223 236 243 237 240 253 256 258 260 262 258 257 258 259 258 257 254 257 259 261 265 263 267 259 228 223 237 239 237 237 240 244 251 258 267 274 281 287 293 300 308 315
278 274 273 267 257 237 249 243 247 249 250 244 240 252 260 265 264 263 264 255 254 257 256 256 251 253 257 259 265 269 243 225 239 243 240 244 243 244 247 253 259 264 274 276 280 291 298 306 314
276 273 269 267 264 255 252 254 254 257 254 257 266 255 257 264 263 258 263 258 251 247 249 254 251 251 252 255 265 261 220 227 237 241 240 236 247 250 249 253 258 267 271 280 288 293 297 305 313
287 279 266 267 265 263 263 266 266 265 266 265 261 261 253 258 262 260 254 259 259 254 243 246 252 249 250 251 253 252 226 232 235 233 241 239 238 246 250 250 256 262 266 271 280 288 295 301 309
292 280 270 267 267 264 262 262 265 265 264 262 262 260 260 254 260 262 261 257 261 260 249 243 244 248 245 246 247 244 234 231 234 237 238 243 244 249 249 248 250 258 265 268 274 282 289 298 301
292 283 276 267 267 274 263 260 262 266 265 264 264 262 256 257 256 260 257 254 258 255 255 244 244 247 248 247 242 244 241 237 241 245 243 241 244 242 248 250 249 254 263 271 275 277 282 298 298
298 293 288 281 274 272 269 266 263 263 267 265 264 262 262 258 254 257 254 254 254 258 255 251 242 241 248 255 252 239 245 243 241 245 247 246 249 246 244 250 252 255 263 271 277 278 286 288 298
307 305 299 292 287 284 279 276 274 269 265 264 263 262 263 262 257 253 254 253 256 256 257 254 255 246 245 244 235 243 239 242 244 247 249 247 246 253 250 253 258 262 266 273 275 279 282 285 297
310 310 307 296 285 281 279 277 276 274 271 270 267 267 261 259 259 250 250 252 249 253 256 252 250 252 247 235 238 243 242 246 246 249 253 249 245 247 253 254 258 267 270 274 274 277 281 285 295
317 311 294 301 305 308 304 300 289 280 276 272 269 265 261 257 256 254 247 246 241 246 253 255 247 249 244 246 239 239 243 240 249 248 252 251 248 247 250 253 256 260 263 268 273 275 275 279 285
318 328 326 327 311 305 301 303 299 291 282 278 273 264 259 258 252 253 250 245 244 239 240 250 250 248 250 246 242 237 234 238 243 246 246 249 246 246 250 253 254 257 261 266 270 277 276 278 284
330 327 317 316 303 288 286 289 290 287 283 277 272 266 256 250 252 251 253 254 249 249 249 241 246 250 247 245 246 240 236 237 237 243 244 244 244 245 245 249 252 254 257 266 268 272 282 286 276
330 326 324 318 311 309 306 296 298 293 289 279 262 256 257 255 258 250 248 246 258 255 253 248 246 242 246 242 243 243 239 237 238 239 242 243 240 241 240 241 248 251 249 265 261 274 278 281 274
323 320 323 327 325 320 314 306 295 286 284 276 265 256 261 264 259 260 257 254 265 271 267 257 244 246 244 241 238 240 237 235 233 235 239 241 240 239 241 238 237 250 249 251 256 264 269 275 266
313 316 324 327 327 329 312 316 296 288 285 272 264 267 255 260 270 269 269 271 271 274 270 267 258 243 245 243 236 236 236 233 232 232 233 234 234 235 237 230 237 243 250 251 254 258 262 257 266
305 311 318 324 320 325 314 336 320 247 261 263 268 266 271 257 271 276 272 273 275 279 276 266 270 251 243 244 238 232 234 235 235 233 238 237 222 221 230 225 237 241 243 246 251 263 273 275 264
300 303 307 311 323 320 308 311 333 285 293 281 266 255 269 276 287 288 286 288 282 287 291 285 263 250 240 238 238 233 230 232 233 231 235 229 247 215 225 219 230 236 235 242 250 261 269 264 265
295 297 298 306 310 314 320 318 340 288 292 292 278 253 249 273 280 283 287 289 290 286 295 290 274 232 231 232 237 235 230 229 231 232 234 237 235 218 219 219 225 233 232 238 250 260 270 263 257
289 292 294 293 301 310 313 313 308 293 296 286 285 284 284 272 279 287 292 294 293 293 295 291 283 253 226 220 230 233 232 228 227 231 231 223 247 232 237 220 221 232 232 239 251 254 261 262 242
292 289 293 288 291 295 305 310 285 285 283 282 284 284 278 277 285 286 286 291 293 302 281 277 287 289 243 227 221 227 230 228 226 226 231 231 237 225 213 211 215 228 235 243 252 255 256 254 246
288 293 288 287 283 286 297 300 318 301 300 304 294 286 293 269 287 287 285 294 293 305 274 261 294 303 262 232 228 225 227 229 224 223 228 230 226 212 207 211 213 226 233 243 257 256 257 250 238
286 282 279 274 280 284 285 288 306 299 305 313 309 306 287 277 281 280 281 280 289 295 272 274 294 292 280 261 230 230 225 228 227 222 227 225 228 217 205 204 223 229 238 242 250 263 255 242 233
282 283 284 284 280 282 284 280 295 296 301 304 301 301 302 308 302 282 277 278 282 282 281 280 279 282 272 263 231 230 227 226 228 222 225 232 251 228 241 241 216 223 237 243 249 263 252 223 233
280 281 279 272 277 278 283 285 290 294 295 300 300 302 303 308 307 281 270 277 283 278 284 281 268 252 253 249 229 229 230 227 224 226 225 225 230 216 227 217 208 219 236 247 245 244 231 214 229